User: anonymous   Login
Location: Newark
(45.7425°N, 0.7617°W)
Time: 01:23:59
(UTC+00:00)
Language:

LilacSat-2 - Orbit

View from above orbital plane
View from above orbital plane
View from above satellite
View from above satellite

Ground track
Ground track

The orbit data is extracted from the following two-line orbital elements,

1 40908U 15049K   21125.74752712  .00000782  00000-0  46114-4 0  9993
2 40908  97.5046 126.3239 0015545 353.9093 179.0303 15.14399112310768
Epoch (UTC): 05 May 2021 17:56:26
Eccentricity: 0.0015545
inclination: 97.5046°
perigee height: 512 km
apogee height: 533 km
right ascension of ascending node: 126.3239°
argument of perigee: 353.9093°
revolutions per day: 15.14399112
mean anomaly at epoch: 179.0303°
orbit number at epoch: 31076

The dashed part of the orbit path shows where the satellite is in the earth's shadow,  

DLR